Weather Roundup
Issued by NWS

Home | Current Version | Previous Version | Text Only | Print | Product List | Glossary On
Versions: 1 2 3 4 5 6 7 8 9 10 11 12 13 14 15 16 17 18 19 20 21 22 23 24 25 26 27 28 29 30 31 32 33 34 35 36 37 38 39 40 41 42 43 44 45 46 47 48 49 50
000
NZUS93 KARX 240910
HRRWXR

CURRENT HOURLY OBSERVATIONS ACROSS
MUCH OF THE UPPER MISSISSIPPI VALLEY
NATIONAL WEATHER SERVICE LA CROSSE WI
400 AM CDT TUE APR 24 2018


...SOUTHEAST MINNESOTA...


CITY           SKY/WX    TMP DP  RH WIND       PRES   REMARKS
ROCHESTER      MOCLDY    45  36  70 W7        30.13S
ROCHESTER/MAYO CLOUDY    47  36  65 W3        30.13R
WINONA         FAIR      37  34  87 CALM      30.10S
AUSTIN         FAIR      39  37  93 N3        30.12S
ALBERT LEA     FAIR      39  37  93 CALM      30.13S
DODGE CENTER   FAIR      41  36  81 CALM      30.13R
PRESTON        FAIR      49  32  52 CALM      30.12S
OWATONNA       FAIR      39  37  93 CALM      30.13S
FARIBAULT      NOT AVBL
$$

...ELSEWHERE IN MINNESOTA...


CITY           SKY/WX    TMP DP  RH WIND       PRES   REMARKS
MINNEAPOLIS    FAIR      49  40  71 CALM      30.12F
INTNL FALLS    CLOUDY    32  28  85 CALM      30.19R
DULUTH         FAIR      44  28  53 CALM      30.14R
RED WING       FAIR      37  30  75 CALM      30.12R
REDWOOD FALLS  CLEAR     44  40  85 W6        30.14R
MANKATO        FAIR      49  41  74 CALM      30.14S
WORTHINGTON    CLOUDY    43  37  79 SW5       30.15F
FAIRMONT       CLEAR     41  36  82 W3        30.14F
$$

...SOUTHWEST WISCONSIN...


CITY           SKY/WX    TMP DP  RH WIND       PRES   REMARKS
LA CROSSE      FAIR      44  34  67 SE3       30.11F
PRAIRIE DU CHI FAIR      38  31  75 CALM      30.11S
BOSCOBEL       FAIR      35  31  85 CALM      30.12S
LONE ROCK      FAIR      35  32  88 CALM      30.11S
PLATTEVILLE    FAIR      42  32  66 NE6       30.10S
FORT MC COY    FAIR      30  26  86 CALM      30.12F
CAMP DOUGLAS   FAIR      29  28  95 CALM      30.10F
MAUSTON-NEW LI FAIR      35  31  87 CALM      30.10F
VIROQUA        FAIR      46  30  53 CALM      30.10F
WIS DELLS      FAIR      35  29  82 CALM      30.10S
$$

...ELSEWHERE IN WISCONSIN...


CITY           SKY/WX    TMP DP  RH WIND       PRES   REMARKS
MILWAUKEE      CLOUDY    49  31  49 CALM      30.08R
MADISON        FAIR      41  33  73 N3        30.09S
GREEN BAY      FAIR      39  34  82 CALM      30.11S
EAU CLAIRE     FAIR      37  32  82 CALM      30.10F
BLACK RVR FLS  FAIR      29  29 100 CALM      30.12S
MEDFORD        FAIR      33  29  86 CALM      30.11F
WAUSAU         FAIR      35  27  72 CALM      30.10S
WIS RAPIDS     FAIR      34  27  75 CALM      30.12S
MARSHFIELD     FAIR      39  30  70 CALM      30.10S
RICE LAKE      FAIR      33  32  96 CALM      30.14S
$$

...NORTHEAST IOWA...


CITY           SKY/WX    TMP DP  RH WIND       PRES   REMARKS
WATERLOO       FAIR      42  36  79 CALM      30.11S
DUBUQUE        FAIR      44  31  60 NE5       30.09S
DECORAH        FAIR      43  34  70 CALM      30.10F
MASON CITY     CLEAR     42  38  85 NW3       30.14R
CHARLES CITY   CLOUDY    43  39  87 N5        30.12S
OELWEIN        FAIR      43  34  70 NE6       30.10F
$$

...ELSEWHERE IN IOWA...


CITY           SKY/WX    TMP DP  RH WIND       PRES   REMARKS
DES MOINES     CLEAR     48  34  58 NW6       30.12R
IOWA CITY      FAIR      48  28  46 NE6       30.09S
FORT DODGE     CLOUDY    46  40  79 N3        30.13S
MARSHALLTOWN   CLEAR     40  34  79 NW6       30.10S
CEDAR RAPIDS   FAIR      46  30  53 N7        30.08R
$$

...NORTHERN ILLINOIS...


CITY           SKY/WX    TMP DP  RH WIND       PRES   REMARKS
CHICAGO-OHARE  CLOUDY    50  36  58 NE5       30.06R
CHICAGO-MIDWAY CLOUDY    53  39  59 E3        30.06S
MOLINE         FAIR      52  38  58 CALM      30.06S
ROCKFORD       MOCLDY    50  27  40 N8        30.08F
PEORIA         CLOUDY    51  49  92 NE8       30.03F FOG
$$

NOTE: "FAIR" INDICATES FEW OR NO CLOUDS BELOW 12,000 FEET WITH NO
SIGNIFICANT WEATHER AND/OR OBSTRUCTIONS TO VISIBILITY. WIND
SPEEDS ARE IN MILES-PER-HOUR.




USA.gov is the U.S. government's official web portal to all federal, state and local government web resources and services.